This demonstration page uses our WeatherBlox Daily Observations layout. Learn more.

Hourly Observations for March 16, 2019

Temp ( °F °C ) Dew Point ( °F °C ) Humidity (%) Winds ( mph kmh ) Pressure ( in mb ) Visibility ( mi km ) Precip ( " mm )
12:15 am 00:15 Clear 31 -0.5 26 -3.2 82 82 SSW 5 7 30.45 1031 10 16.09344 0 0
12:35 am 00:35 Clear 30 -1 26 -3.5 83 83 SSW 5 7 30.45 1031 10 16.09344 0 0
12:55 am 00:55 Clear 32 0 27 -2.9 81 81 SW 7 11 30.45 1031 10 16.09344 0 0
1:15 am 01:15 Clear 33 0.5 26 -3.1 77 77 W 5 7 30.45 1031 10 16.09344 0 0
1:35 am 01:35 Clear 32 0.1 26 -3.4 78 78 W 6 9 30.45 1031 10 16.09344 0 0
1:55 am 01:55 Clear 31 -0.4 27 -3 83 83 W 6 9 30.42 1030 10 16.09344 0 0
2:15 am 02:15 Clear 32 -0.1 27 -3 81 81 W 3 6 30.42 1030 10 16.09344 0 0
2:35 am 02:35 Clear 32 -0.2 26 -3.1 81 81 WSW 3 6 30.42 1030 10 16.09344 0 0
2:55 am 02:55 Clear 30 -0.9 27 -3 86 86 WSW 3 6 30.42 1030 10 16.09344 0 0
3:15 am 03:15 Clear 31 -0.3 27 -3 82 82 WSW 3 6 30.42 1030 10 16.09344 0 0
3:35 am 03:35 Clear 31 -0.6 27 -3 84 84 Calm 30.42 1030 10 16.09344 0 0
3:55 am 03:55 Clear 29 -1.5 25 -3.7 85 85 WNW 3 6 30.42 1030 10 16.09344 0 0
4:15 am 04:15 Clear 29 -1.9 25 -3.7 88 88 W 6 9 30.42 1030 10 16.09344 0 0
4:35 am 04:35 Clear 30 -1.2 27 -3 88 88 W 3 6 30.42 1030 10 16.09344 0 0
4:55 am 04:55 Clear 30 -1.2 26 -3.3 86 86 W 3 6 30.42 1030 10 16.09344 0 0
5:15 am 05:15 Clear 29 -1.4 26 -3.5 86 86 WSW 3 6 30.42 1030 10 16.09344 0 0
5:35 am 05:35 Clear 29 -1.6 26 -3.6 86 86 WNW 3 6 30.42 1030 10 16.09344 0 0
5:55 am 05:55 Clear 28 -2 25 -3.8 88 88 Calm 30.42 1030 10 16.09344 0 0
6:15 am 06:15 Clear 28 -2.5 24 -4.2 88 88 NW 5 7 30.42 1030 10 16.09344 0 0
6:35 am 06:35 Clear 28 -2.1 25 -3.8 88 88 WSW 5 7 30.45 1031 10 16.09344 0 0
6:55 am 06:55 Clear 28 -2 25 -3.8 88 88 W 5 7 30.45 1031 10 16.09344 0 0
7:15 am 07:15 Clear 28 -2.2 25 -4 88 88 W 5 7 30.45 1031 10 16.09344 0 0
7:35 am 07:35 Clear 28 -2 25 -3.9 87 87 W 5 7 30.45 1031 10 16.09344 0 0
7:55 am 07:55 Sunny 28 -2.3 25 -4.1 88 88 NW 6 9 30.45 1031 10 16.09344 0 0
8:15 am 08:15 Sunny 28 -2.2 25 -3.9 88 88 NW 3 6 30.45 1031 10 16.09344 0 0
8:35 am 08:35 Sunny 30 -1 26 -3.2 85 85 NW 5 7 30.45 1031 10 16.09344 0 0
8:55 am 08:55 Sunny 31 -0.5 27 -2.8 85 85 NW 7 11 30.48 1032 10 16.09344 0 0
9:15 am 09:15 Sunny 32 0 28 -2.4 84 84 W 7 11 30.48 1032 10 16.09344 0 0
9:35 am 09:35 Sunny 33 0.5 29 -1.9 84 84 WNW 9 15 30.48 1032 10 16.09344 0 0
9:55 am 09:55 Sunny 34 1.3 29 -1.7 81 81 WNW 10 17 30.45 1031 10 16.09344 0 0
10:15 am 10:15 Sunny 36 2 29 -1.9 76 76 WNW 12 19 30.45 1031 10 16.09344 0 0
10:35 am 10:35 Sunny 37 2.6 30 -1.1 77 77 WNW 10 17 30.45 1031 10 16.09344 0 0
10:55 am 10:55 Sunny 38 3.2 31 -0.7 76 76 WNW 9 15 30.45 1031 10 16.09344 0 0
11:15 am 11:15 Sunny 39 4 31 -0.8 71 71 WNW 9 15 30.42 1030 10 16.09344 0 0
11:35 am 11:35 Sunny 40 4.7 31 -0.5 69 69 WNW 9 15 30.42 1030 10 16.09344 0 0
11:55 am 11:55 Sunny 42 5.5 32 0.2 69 69 WNW 8 13 30.42 1030 10 16.09344 0 0
12:15 pm 12:15 Sunny 44 6.5 32 0.2 64 64 NNW 8 13 30.42 1030 10 16.09344 0 0
12:35 pm 12:35 Sunny 46 7.5 31 -0.8 56 56 NNW 9 15 30.39 1029 10 16.09344 0 0
12:55 pm 12:55 Sunny 47 8.2 30 -1.2 52 52 N 7 11 30.39 1029 10 16.09344 0 0
1:15 pm 13:15 Sunny 47 8.6 30 -0.9 52 52 NNW 10 17 30.39 1029 10 16.09344 0 0
1:35 pm 13:35 Sunny 49 9.2 31 -0.4 51 51 NW 9 15 30.39 1029 10 16.09344 0 0
1:55 pm 13:55 Sunny 49 9.3 32 -0.2 52 52 N 7 11 30.39 1029 10 16.09344 0 0
2:15 pm 14:15 Sunny 50 9.8 32 -0.2 50 50 NNW 14 22 30.39 1029 10 16.09344 0 0
2:35 pm 14:35 Sunny 50 10 32 -0.1 50 50 NW 10 17 30.33 1027 10 16.09344 0 0
2:55 pm 14:55 Sunny 51 10.5 32 0.1 49 49 N 12 19 30.33 1027 10 16.09344 0 0
3:15 pm 15:15 Sunny 51 10.6 31 -0.3 47 47 NNW 13 20 30.33 1027 10 16.09344 0 0
3:35 pm 15:35 Sunny 51 10.7 29 -1.5 43 43 NW 12 19 30.33 1027 10 16.09344 0 0
3:55 pm 15:55 Sunny 52 11 29 -1.5 42 42 NNW 10 17 30.3 1026 10 16.09344 0 0
4:15 pm 16:15 Sunny 52 11.2 28 -2 40 40 NNW 10 17 30.3 1026 10 16.09344 0 0
4:35 pm 16:35 Sunny 52 11.2 27 -2.9 37 37 NNW 10 17 30.3 1026 10 16.09344 0 0
4:55 pm 16:55 Sunny 53 11.4 28 -2.2 39 39 NNW 10 17 30.3 1026 10 16.09344 0 0
5:15 pm 17:15 Sunny 52 11.3 28 -2.4 39 39 NNW 16 26 30.3 1026 10 16.09344 0 0
5:35 pm 17:35 Sunny 52 11 27 -2.6 39 39 NNW 15 24 30.3 1026 10 16.09344 0 0
5:55 pm 17:55 Sunny 51 10.7 29 -1.7 42 42 N 14 22 30.3 1026 10 16.09344 0 0
6:15 pm 18:15 Sunny 50 10.1 28 -2.1 43 43 N 16 26 30.3 1026 10 16.09344 0 0
6:35 pm 18:35 Sunny 49 9.7 29 -1.7 45 45 N 14 22 30.3 1026 10 16.09344 0 0
6:55 pm 18:55 Sunny 48 8.7 30 -1 51 51 NNE 15 24 30.33 1027 10 16.09344 0 0
7:15 pm 19:15 Sunny 46 7.7 31 -0.6 56 56 NNE 10 17 30.36 1028 10 16.09344 0 0
7:35 pm 19:35 Sunny 44 6.7 30 -1 58 58 NNE 8 13 30.36 1028 10 16.09344 0 0
7:55 pm 19:55 Clear 42 5.5 29 -1.5 61 61 NNE 8 13 30.39 1029 10 16.09344 0 0
8:15 pm 20:15 Clear 40 4.5 28 -2 63 63 NE 6 9 30.39 1029 10 16.09344 0 0
8:35 pm 20:35 Clear 39 3.9 27 -2.6 63 63 NNE 7 11 30.39 1029 10 16.09344 0 0
8:55 pm 20:55 Clear 38 3.5 26 -3.1 62 62 NNE 7 11 30.42 1030 10 16.09344 0 0
9:15 pm 21:15 Clear 37 2.6 26 -3.1 66 66 NNE 7 11 30.42 1030 10 16.09344 0 0
9:35 pm 21:35 Clear 36 2.4 26 -3.4 66 66 NNE 6 9 30.42 1030 10 16.09344 0 0
9:55 pm 21:55 Clear 35 1.8 27 -2.7 72 72 N 5 7 30.45 1031 10 16.09344 0 0
10:15 pm 22:15 Clear 34 1.3 27 -2.6 76 76 Calm 30.45 1031 10 16.09344 0 0
10:35 pm 22:35 Clear 36 2 26 -3.6 67 67 N 3 6 30.45 1031 10 16.09344 0 0
10:55 pm 22:55 Clear 35 1.4 25 -3.9 68 68 NNE 3 6 30.45 1031 10 16.09344 0 0
11:15 pm 23:15 Clear 35 1.4 24 -4.4 66 66 N 3 6 30.45 1031 10 16.09344 0 0
11:35 pm 23:35 Clear 35 1.6 22 -5.8 58 58 N 5 7 30.45 1031 10 16.09344 0 0
11:55 pm 23:55 Clear 35 1.6 21 -6.2 57 57 Calm 30.45 1031 10 16.09344 0 0

Powered by AerisWeather